1494554400.68,61321,12.69,72992.5,-0.09,-0.97,-0.97,0,*5E
1494554401.92,61322,12.69,72990.0,-0.11,-1.01,-0.97,0,*5A
1494554403.14,61323,12.75,72992.8,-0.11,-0.89,-0.89,0,*65
1494554404.39,61324,12.75,72990.0,-0.09,-0.89,-0.85,0,*57
1494554405.61,61325,12.75,72986.3,-0.11,-0.89,-0.85,0,*6F
1494554406.84,61326,12.75,72988.0,-0.09,-0.89,-0.81,0,*51
1494554408.07,61327,12.69,72982.3,-0.11,-0.89,-0.89,0,*61
1494554409.32,61328,12.69,72982.3,-0.09,-0.89,-0.85,0,*5B
1494554410.54,61329,12.69,72988.0,-0.11,-0.97,-0.97,0,*6F
1494554411.8,61330,12.69,72994.0,-0.09,-1.01,-0.89,0,*6F
1494554413.02,61331,12.75,73002.3,-0.11,-0.89,-0.89,0,*66
1494554414.27,61332,12.69,72996.3,-0.09,-0.97,-0.89,0,*53
1494554415.53,61333,12.69,72994.8,-0.09,-0.97,-0.89,0,*52
1494554416.77,61334,12.75,73002.3,-0.09,-0.89,-0.85,0,*56
1494554418.02,61335,12.69,72992.8,-0.09,-0.89,-0.85,0,*57
1494554419.27,61336,12.75,73000.3,-0.09,-0.97,-0.97,0,*58
1494554420.5,61337,12.69,72994.0,-0.11,-0.89,-0.89,0,*60
1494554421.75,61338,12.75,72992.8,-0.09,-0.97,-0.89,0,*59
1494554422.98,61339,12.69,72994.5,-0.11,-0.89,-0.89,0,*6E
1494554424.2,61340,12.75,72996.0,-0.11,-0.89,-0.89,0,*60
1494554425.45,61341,12.69,72994.3,-0.09,-0.97,-0.97,0,*58
1494554426.7,61342,12.69,72998.8,-0.09,-0.97,-0.89,0,*54
1494554427.95,61343,12.75,73002.5,-0.09,-0.89,-0.89,0,*5A
1494554429.2,61344,12.69,72996.3,-0.09,-0.89,-0.89,0,*5D
1494554430.42,61345,12.75,72990.8,-0.07,-0.85,-0.85,0,*52
1494554431.67,61346,12.69,72980.3,-0.09,-0.89,-0.97,0,*50
1494554432.93,61347,12.69,72990.3,-0.09,-1.01,-0.89,0,*6F
1494554434.17,61348,12.69,72982.0,-0.09,-0.89,-0.89,0,*51
1494554435.4,61349,12.69,72978.3,-0.09,-0.85,-0.81,0,*54
1494554436.65,61350,12.75,72988.3,-0.09,-0.85,-0.85,0,*58
1494554437.9,61351,12.75,72984.3,-0.09,-0.97,-0.85,0,*5A
1494554439.15,61352,12.69,72986.0,-0.09,-0.89,-0.89,0,*5A
1494554440.4,61353,12.69,72968.3,-0.09,-0.97,-0.97,0,*5B
1494554441.66,61354,12.69,72976.0,-0.09,-1.01,-1.09,0,*54
1494554442.91,61355,12.75,72978.0,-0.09,-0.89,-0.89,0,*5D
1494554444.16,61356,12.75,72972.3,-0.09,-1.09,-0.89,0,*67
1494554445.38,61357,12.75,72972.8,-0.07,-0.93,-0.85,0,*56
1494554446.6,61358,12.75,72974.0,-0.07,-0.93,-0.93,0,*5E
1494554447.82,61359,12.69,72972.5,-0.07,-0.85,-0.85,0,*5F
1494554449.06,61360,12.69,72988.5,-0.07,-1.05,-1.05,0,*55
1494554450.27,61361,12.69,72978.8,-0.09,-1.25,-1.21,0,*5E
1494554451.48,61362,12.69,72972.0,-0.09,-1.25,-1.33,0,*5E
1494554452.74,61363,12.75,72960.3,-0.09,-1.13,-1.13,0,*58
1494554453.97,61364,12.69,72962.5,-0.09,-1.21,-1.09,0,*55
1494554455.23,61365,12.69,72966.0,-0.09,-1.09,-0.97,0,*68
1494554456.49,61366,12.75,72968.8,-0.09,-1.01,-1.01,0,*5D
1494554457.75,61367,12.69,72964.5,-0.09,-1.01,-1.01,0,*5C
1494554459.0,61368,12.75,72962.3,-0.09,-1.09,-1.09,0,*53
1494554460.25,61369,12.75,72976.3,-0.09,-0.97,-0.97,0,*52
1494554461.51,61370,12.75,72972.5,-0.09,-1.09,-1.09,0,*5A
1494554462.77,61371,12.69,72978.8,-0.09,-1.01,-0.97,0,*65
1494554464.02,61372,12.69,72978.8,-0.09,-1.09,-1.01,0,*50
1494554465.28,61373,12.69,72978.3,-0.09,-1.01,-1.01,0,*59
1494554466.54,61374,12.69,72972.5,-0.09,-1.01,-0.89,0,*6F
1494554467.76,61375,12.75,72976.5,-0.07,-0.85,-0.85,0,*51
1494554468.98,61376,12.69,72976.0,-0.07,-0.93,-0.93,0,*52
1494554470.2,61377,12.69,72982.3,-0.05,-0.89,-0.81,0,*59
1494554471.42,61378,12.69,72982.0,-0.07,-0.97,-0.93,0,*58
1494554472.65,61379,12.69,72974.8,-0.07,-0.97,-0.93,0,*59
1494554473.87,61380,12.69,72974.5,-0.07,-0.93,-0.93,0,*5B
1494554475.1,61381,12.75,72978.0,-0.07,-1.05,-0.97,0,*60
1494554476.36,61382,12.69,72970.5,-0.05,-1.01,-1.05,0,*5F
1494554477.59,61383,12.69,72940.5,-0.07,-1.05,-0.97,0,*62
1494554478.83,61384,12.69,72960.5,-0.07,-1.05,-1.05,0,*5F
1494554480.05,61385,12.75,72958.3,-0.07,-1.09,-0.97,0,*68
1494554481.28,61386,12.75,72966.0,-0.07,-1.05,-0.97,0,*67
1494554482.5,61387,12.69,72968.5,-0.07,-0.97,-0.93,0,*58
1494554483.75,61388,12.69,72966.8,-0.05,-0.93,-0.93,0,*51
1494554484.98,61389,12.69,72962.3,-0.07,-1.05,-0.97,0,*68
1494554486.23,61390,12.69,72960.5,-0.09,-1.13,-1.09,0,*5F
1494554487.49,61391,12.69,72958.0,-0.09,-1.09,-1.09,0,*55
1494554488.71,61392,12.69,72966.5,-0.07,-0.93,-0.93,0,*58
1494554489.96,61393,12.69,72958.3,-0.09,-0.89,-0.89,0,*57
1494554491.18,61394,12.69,72958.8,-0.07,-0.85,-0.85,0,*5E
1494554492.4,61395,12.69,72962.0,-0.07,-0.93,-0.93,0,*5F
1494554493.62,61396,12.69,72964.0,-0.07,-0.89,-0.85,0,*50
1494554494.83,61397,12.75,72968.0,-0.07,-0.93,-0.85,0,*5A
1494554496.05,61398,12.69,72958.0,-0.07,-0.93,-0.93,0,*52
1494554497.27,61399,12.75,72966.0,-0.07,-0.93,-0.85,0,*54
1494554498.5,61400,12.69,72964.5,-0.07,-1.05,-0.93,0,*6A
1494554499.72,61401,12.69,72968.3,-0.07,-0.97,-0.93,0,*51
1494554500.94,61402,12.69,72966.8,-0.07,-0.93,-0.93,0,*56
1494554502.16,61403,12.75,72968.8,-0.07,-0.93,-0.93,0,*57
1494554503.39,61404,12.69,72964.0,-0.07,-1.05,-0.97,0,*6A
1494554504.61,61405,12.69,72964.5,-0.07,-0.97,-0.93,0,*55
1494554505.83,61406,12.69,72964.0,-0.07,-0.97,-0.97,0,*52
1494554507.05,61407,12.69,72964.0,-0.07,-0.93,-0.93,0,*53
1494554508.3,61408,12.75,72964.3,-0.09,-0.97,-0.89,0,*5D
1494554509.55,61409,12.75,72966.0,-0.05,-0.89,-0.89,0,*5F
1494554510.8,61410,12.69,72964.3,-0.05,-0.89,-0.89,0,*57
1494554512.02,61411,12.69,72966.0,-0.07,-0.85,-0.85,0,*54
1494554513.24,61412,12.69,72968.5,-0.07,-0.85,-0.85,0,*57
1494554514.46,61413,12.75,72974.8,-0.07,-0.85,-0.85,0,*56
1494554515.66,61414,12.69,72970.8,-0.07,-0.85,-0.77,0,*5C
1494554516.87,61415,12.75,72974.5,-0.05,-0.81,-0.77,0,*5B
1494554518.07,61416,12.69,72970.5,-0.07,-0.85,-0.81,0,*57
1494554519.27,61417,12.75,72972.0,-0.05,-0.81,-0.77,0,*59
1494554520.5,61418,12.69,72970.5,-0.05,-0.89,-0.81,0,*57
1494554521.7,61419,12.69,72966.0,-0.05,-0.81,-0.81,0,*5E
1494554522.92,61420,12.69,72966.3,-0.05,-0.89,-0.81,0,*5C
1494554524.15,61421,12.69,72964.5,-0.07,-0.85,-0.85,0,*57
1494554525.37,61422,12.69,72966.0,-0.05,-0.89,-0.81,0,*5E
1494554526.61,61423,12.69,72966.5,-0.05,-0.93,-0.89,0,*5C
1494554527.85,61424,12.69,72966.3,-0.05,-0.93,-0.89,0,*5B
1494554529.08,61425,12.69,72966.3,-0.07,-0.97,-0.97,0,*53
1494554530.32,61426,12.69,72962.0,-0.05,-0.93,-0.89,0,*59
1494554531.54,61427,12.69,72962.0,-0.07,-0.97,-0.93,0,*55
1494554532.77,61428,12.75,72962.3,-0.05,-1.01,-0.81,0,*65
1494554534.0,61429,12.69,72958.8,-0.05,-0.93,-0.81,0,*5E
1494554535.24,61430,12.69,72958.3,-0.05,-0.89,-0.89,0,*55
1494554536.48,61431,12.69,72956.3,-0.05,-0.93,-0.89,0,*5F
1494554537.71,61432,12.69,72956.0,-0.07,-0.97,-0.93,0,*51
1494554538.93,61433,12.75,72960.0,-0.07,-0.97,-0.93,0,*50
1494554540.15,61434,12.69,72956.5,-0.07,-0.85,-0.93,0,*54
1494554541.35,61435,12.69,72956.5,-0.05,-0.81,-0.81,0,*50
1494554542.55,61436,12.75,72960.0,-0.07,-0.85,-0.81,0,*55
1494554543.8,61437,12.69,72956.8,-0.05,-0.89,-0.89,0,*52
1494554545.03,61438,12.69,72952.0,-0.07,-1.05,-0.97,0,*65
1494554546.25,61439,12.69,72948.3,-0.07,-0.93,-0.85,0,*59
1494554547.47,61440,12.69,72950.3,-0.07,-0.93,-0.85,0,*57
1494554548.68,61441,12.75,72954.0,-0.07,-0.93,-0.93,0,*51
1494554549.91,61442,12.69,72952.3,-0.05,-0.89,-0.81,0,*58
1494554551.15,61443,12.69,72956.0,-0.05,-0.89,-0.89,0,*51
1494554552.38,61444,12.69,72960.5,-0.07,-0.89,-0.89,0,*54
1494554553.59,61445,12.69,72952.8,-0.07,-0.93,-0.85,0,*52
1494554554.81,61446,12.69,72954.5,-0.07,-0.85,-0.85,0,*56
1494554556.06,61447,12.69,72958.5,-0.05,-0.89,-0.89,0,*55
1494554557.28,61448,12.69,72964.8,-0.07,-0.97,-0.93,0,*5C
1494554558.53,61449,12.69,72970.3,-0.05,-1.01,-0.93,0,*61
1494554559.79,61450,12.69,72970.8,-0.05,-1.01,-0.89,0,*62
1494554561.01,61451,12.69,72962.0,-0.05,-0.89,-0.81,0,*5A
1494554562.26,61452,12.69,72952.5,-0.05,-1.01,-0.89,0,*60
1494554563.5,61453,12.69,72954.5,-0.05,-0.93,-0.89,0,*5B
1494554564.73,61454,12.69,72962.3,-0.05,-0.93,-0.81,0,*54
1494554565.98,61455,12.69,72960.3,-0.05,-1.05,-0.93,0,*68
1494554567.22,61456,12.69,72958.0,-0.07,-1.05,-1.05,0,*57
1494554568.48,61457,12.69,72964.5,-0.05,-1.01,-1.01,0,*54
1494554569.73,61458,12.69,72970.5,-0.05,-1.01,-0.93,0,*61
1494554570.95,61459,12.69,72968.5,-0.05,-0.93,-0.81,0,*59
1494554572.15,61460,12.69,72966.3,-0.07,-0.89,-0.81,0,*5A
1494554573.4,61461,12.69,72966.8,-0.05,-0.89,-0.89,0,*51
1494554574.62,61462,12.69,72960.8,-0.05,-0.93,-0.81,0,*51
1494554575.85,61463,12.69,72968.5,-0.07,-1.05,-0.97,0,*6B
1494554577.08,61464,12.69,72964.3,-0.07,-1.05,-0.93,0,*68
1494554578.33,61465,12.69,72964.0,-0.05,-1.01,-0.93,0,*6F
1494554579.56,61466,12.69,72964.8,-0.07,-1.05,-0.97,0,*6E
1494554580.78,61467,12.69,72962.3,-0.07,-0.97,-0.93,0,*51
1494554582.0,61468,12.69,72964.0,-0.05,-0.93,-0.81,0,*5B
1494554583.23,61469,12.69,72964.0,-0.07,-1.09,-1.09,0,*5B
1494554584.49,61470,12.69,72962.5,-0.05,-1.13,-1.05,0,*56
1494554585.72,61471,12.69,72964.0,-0.07,-1.09,-0.97,0,*64
1494554586.94,61472,12.69,72964.5,-0.07,-1.01,-0.89,0,*60
1494554588.19,61473,12.69,72962.5,-0.05,-0.93,-0.89,0,*59
1494554589.41,61474,12.69,72964.5,-0.07,-0.85,-0.85,0,*57
1494554590.61,61475,12.69,72964.8,-0.07,-0.81,-0.89,0,*5E
1494554591.83,61476,12.69,72966.5,-0.05,-0.89,-0.81,0,*5F
1494554593.08,61477,12.69,72970.0,-0.05,-0.89,-0.89,0,*56
1494554594.32,61478,12.69,72966.8,-0.05,-0.89,-0.89,0,*59
1494554595.55,61479,12.69,72970.3,-0.07,-1.05,-0.97,0,*60
1494554596.79,61480,12.69,72972.8,-0.07,-1.09,-1.05,0,*50
1494554598.02,61481,12.69,72964.5,-0.05,-1.25,-1.05,0,*5D
1494554599.27,61482,12.69,72962.3,-0.05,-0.93,-1.01,0,*66
1494554600.53,61483,12.69,72956.5,-0.05,-1.13,-1.05,0,*5A
1494554601.79,61484,12.69,72962.0,-0.05,-1.05,-1.01,0,*5E
1494554603.02,61485,12.69,72964.8,-0.07,-1.09,-1.05,0,*55
1494554604.24,61486,12.69,72970.3,-0.07,-1.17,-1.05,0,*59
1494554605.5,61487,12.69,72968.8,-0.05,-1.01,-1.01,0,*59
1494554606.69,61488,12.69,72964.8,-0.07,-1.21,-1.17,0,*51
1494554607.9,61489,12.69,72966.3,-0.07,-1.17,-1.13,0,*51
1494554609.11,61490,12.69,72958.8,-0.07,-1.39,-1.33,0,*57
1494554610.32,61491,12.69,72960.8,-0.07,-1.39,-1.33,0,*56
1494554611.53,61492,12.69,72962.3,-0.05,-1.29,-1.25,0,*51
1494554612.72,61493,12.69,72956.3,-0.07,-1.33,-1.21,0,*5D
1494554613.91,61494,12.69,72968.3,-0.07,-1.29,-1.21,0,*51
1494554615.1,61495,12.69,72962.3,-0.07,-1.29,-1.29,0,*58
1494554616.33,61496,12.69,72966.3,-0.09,-1.21,-1.09,0,*5F
1494554617.59,61497,12.69,72966.0,-0.09,-1.01,-0.97,0,*6A
1494554618.84,61498,12.69,72966.8,-0.09,-1.01,-0.97,0,*65
1494554620.07,61499,12.69,72970.8,-0.07,-0.97,-0.85,0,*57
1494554621.28,61500,12.69,72968.5,-0.07,-1.17,-1.05,0,*56
1494554622.52,61501,12.69,72968.0,-0.07,-1.43,-1.39,0,*59
1494554623.71,61502,12.69,72968.5,-0.07,-1.17,-1.17,0,*57
1494554624.93,61503,12.69,72970.3,-0.07,-1.09,-0.97,0,*60
1494554626.16,61504,12.69,72972.0,-0.07,-1.05,-0.97,0,*6B
1494554627.42,61505,12.69,72972.0,-0.09,-1.09,-1.01,0,*56
1494554628.66,61506,12.69,72972.3,-0.11,-1.09,-1.01,0,*6C
1494554629.92,61507,12.69,72972.0,-0.09,-1.13,-1.01,0,*5F
1494554631.17,61508,12.69,72968.5,-0.09,-1.09,-1.01,0,*5B
1494554632.43,61509,12.69,72974.0,-0.09,-1.09,-1.01,0,*5A
1494554633.69,61510,12.69,72970.0,-0.09,-1.09,-1.01,0,*52
1494554634.94,61511,12.69,72972.8,-0.09,-1.09,-1.01,0,*53
1494554636.17,61512,12.69,72974.5,-0.07,-0.97,-0.93,0,*52
1494554637.4,61513,12.69,72974.5,-0.07,-1.05,-0.93,0,*69
1494554638.63,61514,12.69,72974.5,-0.07,-1.05,-0.97,0,*6A
1494554639.85,61515,12.69,72968.5,-0.07,-0.97,-0.93,0,*55
1494554641.08,61516,12.69,72974.3,-0.07,-1.05,-0.97,0,*68
1494554642.3,61517,12.69,72972.5,-0.07,-0.93,-0.93,0,*53
1494554643.52,61518,12.69,72976.0,-0.07,-0.97,-0.93,0,*58
1494554644.75,61519,12.69,72976.5,-0.07,-0.97,-0.85,0,*5E
1494554645.97,61520,12.69,72978.3,-0.07,-1.05,-0.93,0,*69
1494554647.21,61521,12.69,72974.3,-0.07,-1.09,-1.05,0,*5A
1494554648.43,61522,12.69,72976.5,-0.07,-1.09,-0.97,0,*63
1494554649.67,61523,12.69,72974.5,-0.07,-1.05,-1.05,0,*54
1494554650.86,61524,12.69,72970.5,-0.07,-1.21,-1.17,0,*56
1494554652.05,61525,12.69,72974.3,-0.07,-1.17,-1.17,0,*52
1494554653.24,61526,12.69,72974.3,-0.07,-1.21,-1.17,0,*54
1494554654.45,61527,12.69,72976.3,-0.09,-1.33,-1.33,0,*5E
1494554655.66,61528,12.69,72976.3,-0.09,-1.25,-1.33,0,*56
1494554656.85,61529,12.69,72978.0,-0.07,-1.29,-1.29,0,*5E
1494554658.08,61530,12.69,72978.3,-0.09,-1.35,-1.33,0,*5E
1494554659.29,61531,12.69,72980.5,-0.09,-1.33,-1.25,0,*5E
1494554660.5,61532,12.69,72974.8,-0.09,-1.33,-1.33,0,*5A
1494554661.71,61533,12.69,72976.3,-0.09,-1.25,-1.25,0,*5B
1494554662.93,61534,12.69,72974.8,-0.09,-1.33,-1.21,0,*5F
1494554664.14,61535,12.69,72964.8,-0.09,-1.25,-1.21,0,*59
1494554665.38,61536,12.69,72964.0,-0.11,-1.13,-1.13,0,*67
1494554666.61,61537,12.69,72964.3,-0.11,-1.13,-1.13,0,*66
1494554667.85,61538,12.69,72964.8,-0.09,-1.13,-1.21,0,*51
1494554669.06,61539,12.69,72966.3,-0.09,-1.33,-1.33,0,*51
1494554670.29,61540,12.69,72958.3,-0.09,-1.35,-1.25,0,*5E
1494554671.53,61541,12.69,72952.8,-0.09,-1.35,-1.33,0,*58
1494554672.76,61542,12.69,72956.8,-0.09,-1.21,-1.13,0,*5C
1494554673.99,61543,12.69,72962.3,-0.11,-1.09,-0.97,0,*53
1494554675.22,61544,12.69,72966.8,-0.11,-1.09,-0.97,0,*54
1494554676.44,61545,12.69,72974.8,-0.11,-0.97,-0.97,0,*63
1494554677.67,61546,12.69,72972.8,-0.11,-1.01,-0.97,0,*5E
1494554678.91,61547,12.69,72968.5,-0.11,-1.01,-1.01,0,*61
1494554680.15,61548,12.69,72964.3,-0.11,-1.01,-1.01,0,*6E
1494554681.38,61549,12.69,72964.8,-0.11,-1.01,-0.97,0,*51
1494554682.63,61550,12.69,72978.3,-0.09,-0.89,-0.97,0,*51
1494554683.88,61551,12.69,72970.8,-0.09,-1.09,-0.97,0,*69
1494554685.13,61552,12.69,72972.8,-0.09,-1.09,-0.97,0,*6A
1494554686.38,61553,12.69,72980.5,-0.09,-1.01,-0.89,0,*6C
1494554687.63,61554,12.69,72980.8,-0.09,-0.89,-0.89,0,*5A
1494554688.89,61555,12.69,72970.3,-0.09,-1.01,-0.97,0,*65
1494554690.14,61556,12.69,72970.3,-0.09,-1.01,-0.97,0,*66
1494554691.4,61557,12.69,72972.3,-0.09,-1.13,-1.13,0,*59
1494554692.66,61558,12.69,72970.0,-0.09,-1.13,-1.01,0,*55
1494554693.92,61559,12.69,72968.8,-0.09,-1.13,-1.01,0,*54
1494554695.17,61560,12.69,72964.3,-0.09,-1.13,-0.97,0,*60
1494554696.41,61561,12.69,72962.5,-0.11,-1.01,-0.97,0,*5B
1494554697.64,61562,12.69,72960.3,-0.09,-1.21,-1.13,0,*5E
1494554698.9,61563,12.69,72952.5,-0.09,-1.13,-1.13,0,*5E
1494554700.15,61564,12.69,72962.3,-0.09,-1.09,-1.01,0,*51
1494554701.41,61565,12.69,72964.5,-0.09,-1.01,-0.97,0,*66
1494554702.66,61566,12.69,72962.3,-0.09,-1.01,-0.97,0,*65
1494554703.92,61567,12.69,72964.8,-0.09,-1.01,-0.97,0,*64
1494554705.15,61568,12.69,72978.3,-0.11,-1.01,-0.97,0,*52
1494554706.4,61569,12.69,72976.0,-0.09,-1.01,-0.89,0,*65
1494554707.65,61570,12.69,72974.8,-0.09,-0.89,-0.85,0,*50
1494554708.9,61571,12.69,72976.3,-0.09,-0.89,-0.85,0,*51
1494554710.13,61572,12.69,72976.5,-0.11,-0.97,-0.89,0,*68
1494554711.38,61573,12.69,72972.5,-0.09,-1.01,-0.97,0,*61
1494554712.63,61574,12.69,72980.0,-0.09,-0.97,-0.89,0,*57
1494554713.88,61575,12.69,72982.0,-0.09,-0.89,-0.89,0,*59
1494554715.13,61576,12.69,72976.0,-0.09,-0.97,-0.89,0,*55
1494554716.39,61577,12.69,72974.8,-0.09,-0.97,-0.89,0,*54
1494554717.64,61578,12.69,72984.3,-0.09,-0.97,-0.89,0,*5B
1494554718.89,61579,12.69,72980.8,-0.09,-0.97,-0.97,0,*55
1494554720.14,61580,12.69,72982.8,-0.09,-0.89,-0.89,0,*53
1494554721.39,61581,12.69,72978.3,-0.09,-1.01,-0.89,0,*63
1494554722.64,61582,12.69,72974.8,-0.09,-0.97,-0.89,0,*5E
1494554723.9,61583,12.69,72974.5,-0.09,-1.09,-1.09,0,*50
1494554725.13,61584,12.69,72972.8,-0.07,-1.05,-0.97,0,*63
1494554726.35,61585,12.69,72970.3,-0.07,-0.97,-0.97,0,*58
1494554727.57,61586,12.69,72976.5,-0.07,-0.85,-0.85,0,*5B
1494554728.78,61587,12.69,72976.5,-0.07,-0.85,-0.81,0,*5E
1494554729.98,61588,12.69,72982.8,-0.07,-0.85,-0.81,0,*51
1494554731.18,61589,12.69,72978.0,-0.07,-0.85,-0.81,0,*50
1494554732.38,61590,12.69,72976.8,-0.07,-0.85,-0.81,0,*58
1494554733.59,61591,12.69,72976.3,-0.07,-0.93,-0.85,0,*5A
1494554734.82,61592,12.69,72986.0,-0.07,-0.85,-0.85,0,*5E
1494554736.03,61593,12.69,72986.8,-0.07,-0.93,-0.85,0,*58
1494554737.23,61594,12.69,72984.8,-0.07,-0.85,-0.81,0,*5C
1494554738.43,61595,12.69,72988.3,-0.07,-0.85,-0.81,0,*5D
1494554739.65,61596,12.69,72986.3,-0.07,-0.93,-0.85,0,*5D
1494554740.88,61597,12.69,72980.3,-0.05,-0.89,-0.81,0,*51
1494554742.1,61598,12.69,72982.0,-0.07,-0.85,-0.85,0,*54
1494554743.31,61599,12.69,72982.3,-0.07,-0.93,-0.85,0,*52
1494554744.54,61600,12.69,72976.5,-0.07,-0.85,-0.85,0,*56
1494554745.76,61601,12.69,72974.8,-0.07,-0.85,-0.85,0,*57
1494554746.97,61602,12.69,72974.5,-0.07,-0.93,-0.85,0,*53
1494554748.19,61603,12.69,72974.0,-0.07,-0.93,-0.85,0,*52
1494554749.42,61604,12.69,72974.0,-0.07,-0.97,-0.85,0,*51
1494554750.64,61605,12.69,72972.5,-0.07,-0.85,-0.85,0,*53
1494554751.84,61606,12.69,72974.3,-0.05,-0.81,-0.81,0,*52
1494554753.06,61607,12.69,72972.3,-0.07,-0.85,-0.85,0,*51
1494554754.26,61608,12.69,72972.0,-0.05,-0.81,-0.81,0,*5C
1494554755.49,61609,12.69,72974.3,-0.05,-0.89,-0.81,0,*55
1494554756.71,61610,12.69,72972.8,-0.07,-0.93,-0.85,0,*50
1494554757.91,61611,12.69,72974.8,-0.05,-0.81,-0.81,0,*54
1494554759.13,61612,12.69,72970.3,-0.07,-0.85,-0.85,0,*55
1494554760.35,61613,12.69,72978.8,-0.07,-0.93,-0.93,0,*54
1494554761.57,61614,12.69,72974.5,-0.07,-0.97,-0.93,0,*57
1494554762.79,61615,12.69,72974.5,-0.05,-0.93,-0.81,0,*53
1494554764.03,61616,12.69,72970.8,-0.05,-0.93,-0.85,0,*54
1494554765.26,61617,12.69,72970.5,-0.05,-0.89,-0.81,0,*5A
1494554766.48,61618,12.69,72966.8,-0.07,-0.93,-0.85,0,*58
1494554767.7,61619,12.69,72970.0,-0.07,-0.97,-0.93,0,*5A
1494554768.94,61620,12.69,72970.0,-0.05,-0.93,-0.89,0,*5D
1494554770.19,61621,12.69,72974.8,-0.05,-1.01,-0.89,0,*66
1494554771.42,61622,12.69,72974.5,-0.07,-1.05,-0.97,0,*6C
1494554772.65,61623,12.69,72978.3,-0.07,-0.97,-0.97,0,*57
1494554773.87,61624,12.69,72976.5,-0.07,-0.97,-0.85,0,*53
1494554775.09,61625,12.69,72978.8,-0.07,-0.97,-0.93,0,*55
1494554776.31,61626,12.69,72978.8,-0.07,-0.93,-0.85,0,*55
1494554777.53,61627,12.69,72978.0,-0.07,-0.97,-0.93,0,*57
1494554778.76,61628,12.69,72968.5,-0.07,-1.09,-0.97,0,*6A
1494554779.98,61629,12.69,72978.0,-0.07,-0.93,-0.93,0,*5D
1494554781.19,61630,12.69,72974.0,-0.07,-0.93,-0.85,0,*52
1494554782.4,61631,12.69,72976.5,-0.05,-0.81,-0.81,0,*56
1494554783.63,61632,12.69,72972.5,-0.07,-1.05,-0.93,0,*69
1494554784.88,61633,12.69,72972.5,-0.05,-1.01,-0.89,0,*65
1494554786.11,61634,12.69,72978.8,-0.07,-1.05,-0.93,0,*6F
1494554787.34,61635,12.69,72976.3,-0.07,-1.05,-0.97,0,*6A
1494554788.58,61636,12.69,72970.5,-0.07,-1.05,-1.05,0,*53
1494554789.81,61637,12.69,72960.5,-0.07,-1.05,-0.97,0,*68
1494554791.03,61638,12.69,72964.8,-0.07,-0.97,-0.93,0,*59
1494554792.27,61639,12.69,72972.5,-0.07,-1.01,-1.05,0,*58
1494554793.49,61640,12.69,72972.3,-0.07,-0.97,-0.93,0,*56
1494554794.71,61641,12.69,72972.0,-0.07,-0.97,-0.93,0,*57
1494554795.93,61642,12.69,72968.0,-0.07,-0.93,-0.85,0,*57
1494554797.16,61643,12.69,72966.5,-0.07,-1.05,-0.85,0,*68
1494554798.4,61644,12.69,72968.8,-0.05,-0.93,-0.93,0,*54
1494554799.62,61645,12.69,72970.0,-0.07,-0.93,-0.85,0,*50
1494554800.84,61646,12.69,72974.0,-0.07,-0.93,-0.85,0,*53
1494554802.06,61647,12.69,72974.3,-0.05,-0.89,-0.81,0,*5F
1494554803.28,61648,12.69,72974.3,-0.07,-0.93,-0.85,0,*5D
1494554804.48,61649,12.69,72970.0,-0.05,-0.81,-0.81,0,*59
1494554805.7,61650,12.69,72970.5,-0.07,-0.93,-0.85,0,*54
1494554806.92,61651,12.69,72966.0,-0.07,-0.93,-0.85,0,*55
1494554808.16,61652,12.69,72962.3,-0.05,-0.93,-0.89,0,*58
1494554809.39,61653,12.69,72964.8,-0.07,-0.97,-0.85,0,*53
1494554810.6,61654,12.69,72958.8,-0.07,-0.93,-0.85,0,*50
1494554811.86,61655,12.69,72962.0,-0.05,-1.01,-0.89,0,*65
1494554813.09,61656,12.69,72962.5,-0.07,-1.05,-0.93,0,*6B
1494554814.31,61657,12.69,72962.3,-0.07,-0.97,-0.93,0,*50
1494554815.53,61658,12.69,72962.0,-0.07,-0.93,-0.93,0,*5B
1494554816.75,61659,12.69,72960.3,-0.05,-0.89,-0.81,0,*50
1494554817.98,61660,12.69,72962.0,-0.05,-0.89,-0.81,0,*5A
1494554819.18,61661,12.69,72962.3,-0.05,-0.81,-0.81,0,*53
1494554820.4,61662,12.69,72962.8,-0.07,-0.93,-0.85,0,*55
1494554821.62,61663,12.69,72966.3,-0.07,-0.85,-0.85,0,*53
1494554822.82,61664,12.69,72966.3,-0.05,-0.81,-0.81,0,*56
1494554824.04,61665,12.69,72968.8,-0.07,-0.85,-0.85,0,*55
1494554825.26,61666,12.69,72970.8,-0.07,-0.93,-0.85,0,*51
1494554826.48,61667,12.69,72972.0,-0.07,-0.85,-0.85,0,*57
1494554827.71,61668,12.69,72974.8,-0.07,-1.05,-0.93,0,*66
1494554828.94,61669,12.69,72970.0,-0.07,-1.05,-0.97,0,*63
1494554830.16,61670,12.69,72974.5,-0.07,-1.09,-0.97,0,*67
1494554831.39,61671,12.69,72968.3,-0.05,-0.93,-0.81,0,*51
1494554832.61,61672,12.69,72972.3,-0.07,-0.97,-0.85,0,*50
1494554833.87,61673,12.69,72970.0,-0.05,-1.05,-1.01,0,*54
1494554835.12,61674,12.69,72976.0,-0.05,-1.13,-0.93,0,*6E
1494554836.38,61675,12.69,72978.3,-0.05,-1.05,-1.01,0,*52
1494554837.64,61676,12.69,72972.8,-0.05,-1.05,-1.05,0,*55
1494554838.88,61677,12.69,72968.8,-0.07,-1.05,-1.05,0,*56
1494554840.14,61678,12.69,72970.8,-0.05,-1.05,-0.93,0,*65
1494554841.38,61679,12.69,72964.0,-0.07,-1.05,-1.05,0,*58
1494554842.61,61680,12.69,72964.0,-0.07,-1.05,-0.97,0,*64
1494554843.84,61681,12.69,72962.3,-0.07,-1.05,-0.97,0,*65
1494554845.07,61682,12.69,72966.3,-0.07,-1.05,-0.93,0,*62
1494554846.28,61683,12.69,72954.3,-0.07,-1.17,-1.09,0,*52
1494554847.51,61684,12.69,72966.3,-0.07,-1.09,-1.09,0,*5A
1494554848.73,61685,12.69,72970.8,-0.07,-0.97,-0.93,0,*5F
1494554849.99,61686,12.69,72960.0,-0.05,-1.01,-0.93,0,*60
1494554851.22,61687,12.69,72952.8,-0.07,-0.97,-1.05,0,*63
1494554852.45,61688,12.69,72964.5,-0.07,-1.05,-0.97,0,*6C
1494554853.69,61689,12.69,72956.5,-0.07,-1.05,-1.05,0,*57
1494554854.9,61690,12.69,72954.3,-0.07,-1.17,-1.09,0,*50
1494554856.13,61691,12.69,72970.8,-0.07,-1.09,-1.05,0,*52
1494554857.36,61692,12.69,72976.0,-0.07,-1.09,-0.97,0,*6B
1494554858.58,61693,12.69,72982.8,-0.07,-0.97,-0.97,0,*5C
1494554859.81,61694,12.69,72964.3,-0.07,-1.05,-0.97,0,*61
1494554861.07,61695,12.69,72960.5,-0.09,-1.13,-1.09,0,*5F
1494554862.29,61696,12.69,72964.5,-0.07,-1.17,-1.05,0,*5A
1494554863.51,61697,12.69,72962.3,-0.07,-1.09,-0.97,0,*6E
1494554864.75,61698,12.69,72968.5,-0.07,-1.05,-1.05,0,*57
1494554865.98,61699,12.69,72976.8,-0.07,-1.05,-0.97,0,*6C
1494554867.22,61700,12.69,72964.8,-0.07,-1.05,-1.09,0,*5B
1494554868.46,61701,12.69,72964.8,-0.07,-1.05,-1.05,0,*56
1494554869.69,61702,12.69,72974.3,-0.07,-1.05,-0.97,0,*6F
1494554870.91,61703,12.69,72984.3,-0.07,-0.97,-0.97,0,*54
1494554872.13,61704,12.69,72966.0,-0.07,-0.97,-0.93,0,*57
1494554873.36,61705,12.69,72974.0,-0.07,-0.97,-0.85,0,*51
1494554874.58,61706,12.69,72982.8,-0.07,-0.93,-0.85,0,*56
1494554875.8,61707,12.69,72972.3,-0.07,-0.97,-0.97,0,*50
1494554877.02,61708,12.69,72978.0,-0.07,-0.97,-0.93,0,*5B
1494554878.26,61709,12.69,72972.8,-0.05,-0.93,-0.89,0,*57
1494554879.49,61710,12.69,72980.0,-0.07,-0.97,-0.85,0,*55
1494554880.71,61711,12.69,72968.0,-0.07,-0.97,-0.93,0,*53
1494554881.93,61712,12.69,72962.0,-0.07,-1.17,-1.05,0,*57
1494554883.15,61713,12.69,72964.5,-0.07,-1.09,-0.97,0,*63
1494554884.37,61714,12.69,72970.5,-0.07,-1.09,-0.97,0,*64
1494554885.6,61715,12.69,72964.8,-0.07,-0.97,-0.85,0,*50
1494554886.83,61716,12.69,72968.5,-0.07,-1.05,-0.93,0,*6E
1494554888.05,61717,12.69,72970.3,-0.07,-0.97,-0.85,0,*52
1494554889.28,61718,12.69,72964.8,-0.07,-1.09,-0.97,0,*68
1494554890.51,61719,12.69,72962.0,-0.07,-1.09,-1.05,0,*53
1494554891.76,61720,12.69,72952.8,-0.05,-1.01,-0.93,0,*6D
1494554893.01,61721,12.69,72958.3,-0.05,-0.89,-0.89,0,*56
1494554894.25,61722,12.69,72954.5,-0.05,-0.93,-0.93,0,*55
1494554895.48,61723,12.69,72954.3,-0.07,-1.05,-0.97,0,*6C
1494554896.69,61724,12.69,72956.0,-0.07,-0.93,-0.93,0,*51
1494554897.92,61725,12.69,72950.3,-0.07,-0.97,-0.93,0,*54
1494554899.16,61726,12.69,72952.5,-0.07,-1.05,-1.05,0,*53
1494554900.38,61727,12.69,72952.0,-0.07,-0.97,-0.93,0,*56
1494554901.6,61728,12.69,72962.5,-0.07,-0.93,-0.85,0,*5A
1494554902.82,61729,12.69,72960.8,-0.07,-0.85,-0.85,0,*5C
1494554904.04,61730,12.69,72956.0,-0.07,-0.85,-0.85,0,*54
1494554905.24,61731,12.69,72960.0,-0.05,-0.81,-0.81,0,*57
1494554906.46,61732,12.69,72964.8,-0.07,-0.85,-0.85,0,*56
1494554907.68,61733,12.69,72956.5,-0.07,-0.85,-0.85,0,*57
1494554908.86,61734,12.69,72960.0,-0.07,-0.81,-0.77,0,*59